Regional Weather Roundup
Issued by NWS

Home | Current Version | Previous Version | Text Only | Print | Product List | Glossary On
Versions: 1 2 3 4 5 6 7 8 9 10 11 12 13 14 15 16 17 18 19 20 21 22 23 24 25 26 27 28 29 30 31 32 33 34 35 36 37 38 39 40 41 42 43 44 45 46 47 48 49 50
000
ASUS43 KMPX 020001
RWRMN
WEATHER ROUNDUP FOR MINNESOTA
NATIONAL WEATHER SERVICE TWIN CITIES/CHANHASSEN MN
600 PM CST THU DEC 01 2016


NOTE: "FAIR" INDICATES FEW OR NO CLOUDS BELOW 12,000 FEET WITH NO
SIGNIFICANT WEATHER AND/OR OBSTRUCTIONS TO VISIBILITY. N/A MEANS
CURRENT SKY AND/OR WEATHER CONDITIONS ARE NOT AVAILABLE.

MNZ060>063-068>070-020100-
   Twin Cities Metro

CITY           SKY/WX    TMP DP  RH WIND       PRES   REMARKS
TWIN CITIES    CLOUDY    37  27  67 NW14      29.94R
6HR MIN TEMP:  36; 6HR MAX TEMP:  39;

ST PAUL        CLOUDY    36  30  79 NW9       29.95R
CRYSTAL        CLOUDY    36  25  64 NW8       29.94R
BLAINE         CLOUDY    36  28  75 NW10      29.94R
LAKEVILLE      CLOUDY    36  32  87 W6        29.94R
EDEN PRAIRIE   CLOUDY    38  28  67 NW13      29.93R
6HR MIN TEMP:  37; 6HR MAX TEMP:  39;

SOUTH ST PAUL  CLOUDY    37  29  71 NW7       29.94R
LAKE ELMO      CLOUDY    36  30  80 N9        29.94R
$$
MNZ001>005-007-008-013>017-022>024-027-028-020100-
   Northwest Minnesota

CITY           SKY/WX    TMP DP  RH WIND       PRES   REMARKS
BEMIDJI        CLOUDY    27  23  87 N9        29.96R WCI  17
HALLOCK        CLOUDY    30  27  86 N10G16    30.02S WCI  21
ROSEAU         CLOUDY    27  21  80 NW8       29.99R WCI  18
WARROAD        CLOUDY    27  21  80 NW9       29.99S WCI  17
THIEF RVR FALL CLOUDY    27  22  81 N12       30.01R WCI  17
CROOKSTON      CLOUDY    28  25  86 N12       30.03R WCI  18
FOSSTON        CLOUDY    27  21  80 N8        29.99R WCI  18
DETROIT LAKES  CLOUDY    30  27  86 NW12      29.98R WCI  21
MOORHEAD       CLOUDY    30  25  80 N8        30.03R WCI  23
PARK RAPIDS    CLOUDY    29  20  69 NW8       29.95R WCI  21
$$
MNZ006-009>011-018-025>026-020100-
   North Central Minnesota

CITY           SKY/WX    TMP DP  RH WIND       PRES   REMARKS
BAUDETTE       CLOUDY    27  22  81 NW10      29.96R WCI  17
FLAG ISLAND    CLOUDY    25  21  86 NW15      29.98R WCI  12
INTL FALLS     CLOUDY    27  20  75 NW10      29.94R WCI  17
6HR MIN TEMP:  27; 6HR MAX TEMP:  29;

WASKISH        CLOUDY    27  25  93 N6        29.97R WCI  20
BIG FORK       CLOUDY    28  23  80 N3        29.93R
LONGVILLE      CLOUDY    28  23  80 NW6       29.94R WCI  22
GRAND RAPIDS   CLOUDY    27  22  81 N13       29.95R WCI  16
CRANE LAKE     CLOUDY    27  21  80 N3        29.93S
ORR            CLOUDY    27  21  80 NW8       29.89R WCI  18
COOK           CLOUDY    27  21  80 NW5       29.91S WCI  21
$$
MNZ012-019>021-037-020100-
   Northeast Minnesota

CITY           SKY/WX    TMP DP  RH WIND       PRES   REMARKS
DULUTH         CLOUDY    28  22  78 N13       29.89R WCI  17
6HR MIN TEMP:  28; 6HR MAX TEMP:  31; 6HR PCP: TRACE;

ELY            CLOUDY    25  21  86 N6        29.88S WCI  18
HIBBING        CLOUDY    26  20  77 N13       29.91R WCI  15
EVELETH        CLOUDY    28  20  74 N9G18     29.91R WCI  19
DULUTH HARBOR  CLOUDY    34  25  69 NW7       29.94R WCI  28
TWO HARBORS    CLOUDY    30  23  74 NW6       29.88R WCI  24
SILVER BAY     CLOUDY    28  25  86 NW7       29.87R WCI  21
GRAND MARAIS     N/A     30  21  69 CALM      29.88R
G MARAIS ARPRT CLOUDY    21  16  79 NW10G17   29.81S WCI  10
$$
MNZ029>031-032-039>041-046>048-054>057-064-020100-
   West Central Minnesota

CITY           SKY/WX    TMP DP  RH WIND       PRES   REMARKS
FERGUS FALLS   CLOUDY    30  25  80 N13       30.03R WCI  20
WHEATON        CLOUDY   N/A N/A N/A NW6       30.03R
MORRIS         CLOUDY    30  28  93 NW13      29.99R WCI  20
ALEXANDRIA     CLOUDY    31  26  82 N10       29.96S WCI  22
ELBOW LAKE     CLOUDY    30  27  89 W12       29.99R WCI  20
WADENA         CLOUDY    28  25  86 N6        29.96R WCI  22
GLENWOOD       CLOUDY    30  28  93 NW9       29.96R WCI  22
APPLETON       CLOUDY    34  28  80 N7        30.00R WCI  28
BENSON         CLOUDY    32  28  86 N8        29.99R WCI  25
ORTONVILLE     MIX PCPN  30  28  93 N6        30.00R WCI  24
MADISON        CLOUDY    36  34  93 N10       30.00R
WILLMAR        CLOUDY    34  30  86 NW10      29.98R WCI  26
$$
MNZ033>034-036-042>043-049>051-058-059-020100-
   Central Minnesota

CITY           SKY/WX    TMP DP  RH WIND       PRES   REMARKS
ST CLOUD       CLOUDY    33  27  78 NW8       29.95R WCI  26
6HR MIN TEMP:  33; 6HR MAX TEMP:  38;

PAYNESVILLE    CLOUDY    32  31  95 N7        29.96R WCI  26
AITKIN         CLOUDY    32  21  64 NW7       29.93R WCI  26
PINE RIVER     CLOUDY    28  25  86 NW10      29.98R WCI  19
BRAINERD       CLOUDY    30  23  75 N10       29.95R WCI  21
STAPLES        CLOUDY    28  25  86 NW7       29.95S WCI  21
LONG PRAIRIE   CLOUDY    30  25  80 W12       29.96R WCI  21
LITTLE FALLS   CLOUDY    32  23  69 NW7       29.95R WCI  26
LITCHFIELD     CLOUDY    36  30  80 NW7       29.96R
BUFFALO        CLOUDY    34  27  73 NW6       29.96R WCI  29
MAPLE LAKE     CLOUDY    35  29  78 NW5       29.95S WCI  31
$$
MNZ037-044-045-052-053-020100-
   East Central Minnesota

CITY           SKY/WX    TMP DP  RH WIND       PRES   REMARKS
PRINCETON      CLOUDY    34  27  75 W5        29.95R WCI  30
MORA           CLOUDY    32  27  80 N6        29.96R WCI  26
CAMBRIDGE      CLOUDY    36  25  64 NW6       29.93R
RUSH CITY      CLOUDY    32  25  74 NW5       29.94R WCI  27
MOOSE LAKE     CLOUDY    30  25  80 N7        29.91R WCI  23
HINCKLEY       CLOUDY    32  27  80 NW6       29.94R WCI  26
CLOQUET        CLOUDY    28  21  74 NW8       29.91R WCI  20
MCGREGOR       CLOUDY    30  27  86 N7        29.94R WCI  23
$$
MNZ071>073-080-081-089-090-097-098-020100-
   Southwest Minnesota

CITY           SKY/WX    TMP DP  RH WIND       PRES   REMARKS
MONTEVIDEO     CLOUDY    32  32 100 N12       30.01R WCI  23
GRANITE FALLS  CLOUDY    35  32  90 NW9       30.00S WCI  27
CANBY          CLOUDY    34  30  86 CALM      30.00S
MARSHALL       CLOUDY    33  29  85 NW9       29.99R WCI  25
REDWOOD FALLS  CLOUDY    34  30  85 NW7       29.97R WCI  28
OLIVIA         CLOUDY    34  32  93 NW12      29.96S WCI  25
PIPESTONE      CLOUDY    34  30  86 N5        29.96R WCI  30
WINDOM         CLOUDY    34  32  93 NW12      29.96S WCI  25
WORTHINGTON    CLOUDY    32  29  88 NW8       29.98R WCI  25
JACKSON        CLOUDY    32  30  93 NW8       29.97R WCI  25
TRACY          CLOUDY    33  32  94 NW7       29.98R WCI  27
SLAYTON        CLOUDY    31  30  93 N9        29.96S WCI  23
$$
MNZ065>067-074>077-082>085-091>093-020100-
   South Central Minnesota

CITY           SKY/WX    TMP DP  RH WIND       PRES   REMARKS
MANKATO        CLOUDY    36  32  85 NW10      29.96R
NEW ULM        CLOUDY    36  34  93 NW7       29.96S
ST JAMES       CLOUDY    34  32  93 NW10      29.98R WCI  26
FAIRMONT       CLOUDY    34  31  88 NW10      29.97R WCI  26
GLENCOE        CLOUDY    36  34  92 NW6       29.95R
FARIBAULT      CLOUDY    36  34  93 W6        29.94R
OWATONNA       CLOUDY    36  32  87 W6        29.94R
WASECA         CLOUDY    34  32  93 W6        29.96R WCI  29
ALBERT LEA     CLOUDY    37  36  93 CALM      29.95R
$$
MNZ078>079-086>088-094>096-020100-
   Southeast Minnesota

CITY           SKY/WX    TMP DP  RH WIND       PRES   REMARKS
ROCHESTER      FLURRIES  34  33  96 W10       29.93R WCI  26
6HR MIN TEMP:  34; 6HR MAX TEMP:  35; 6HR PCP: TRACE;

RED WING       CLOUDY    37  30  75 NW5       29.92R
STANTON        CLOUDY    37  33  84 W3        29.93R
DODGE CENTER   CLOUDY    34  34 100 W8        29.93R WCI  27
WINONA         CLOUDY    37  32  81 NW6       29.94R
AUSTIN         CLOUDY    36  32  87 NW8       29.94R
PRESTON        CLOUDY    33  31  90 W5        29.93R WCI  29
$$
ABBREVIATIONS USED IN REMARKS
   TC - TEMPERATURES IN CELSIUS
  WCI - WIND CHILL INDEX
   HX - HEAT INDEX
  VSB - VISIBILITY
$$




USA.gov is the U.S. government's official web portal to all federal, state and local government web resources and services.